Weather History for Parsons, KS

Change the Weather History Date:

Thursday, March 14, 2013

  Actual Average Record
Temperature  
Mean Temperature 56 °F -  
Max Temperature 78 °F 57 °F 82 °F (2002)
Min Temperature 34 °F 33 °F 12 °F (1975)
Degree Days  
Heating Degree Days 10    
Growing Degree Days 6 (Base 50)    
Moisture  
Dew Point 31 °F    
Average Humidity 47    
Maximum Humidity 74    
Minimum Humidity 24    
Precipitation  
Precipitation 0.00 in - - ()
Sea Level Pressure  
Sea Level Pressure 30.18 in    
Wind  
Wind Speed 6 mph (SW)    
Max Wind Speed 18 mph    
Max Gust Speed 26 mph    
Visibility 10 miles    
Events      
Averages and records for this station are not official NWS values.
T = Trace of Precipitation, MM = Missing Value Source: NWS Daily Summary

Daily Weather History Graph

Daily Weather History Graph

Search for Another Location

Airport:

Trip Planner

Search our weather history database for the weather conditions in past years. The results will help you decide how hot, cold, wet, or windy it might be!

Date:

Astronomy

Mar. 14, 2013 Rise Set
Actual Time 7:34 AM CDT 7:28 PM CDT
Civil Twilight 7:08 AM CDT 7:54 PM CDT
Nautical Twilight 6:37 AM CDT 8:24 PM CDT
Astronomical Twilight 6:07 AM CDT 8:55 PM CDT
Moon 8:53 AM CDT (3/14) 10:40 PM CDT (3/14)
Length of Visible Light 12h 46m
Length of Day
11h 54m
Waxing Crescent, 9% of the Moon is Illuminated
Mar 14
Waxing Crescent
Mar 19
First Quarter
Mar 27
Full
Apr 2
Last Quarter
Apr 10
New

Hourly Weather History & Observations

Time (CDT) Temp. Windchill Dew Point Humidity Pressure Visibility Wind Dir Wind Speed Gust Speed Precip Events Conditions
12:52 AM 39.0 °F 35.7 °F 23.0 °F 53% 30.32 in 10.0 mi SE 4.6 mph - N/A   Clear
1:52 AM 39.9 °F 37.8 °F 21.0 °F 47% 30.30 in 10.0 mi SSE 3.5 mph - N/A   Clear
2:52 AM 37.9 °F - 21.0 °F 51% 30.30 in 10.0 mi Calm Calm - N/A   Clear
3:52 AM 37.0 °F - 21.0 °F 52% 30.27 in 10.0 mi Calm Calm - N/A   Clear
4:52 AM 34.0 °F - 21.0 °F 59% 30.26 in 10.0 mi Calm Calm - N/A   Clear
5:52 AM 36.0 °F - 21.9 °F 57% 30.25 in 10.0 mi Calm Calm - N/A   Clear
6:52 AM 35.1 °F 32.2 °F 24.1 °F 64% 30.27 in 10.0 mi South 3.5 mph - N/A   Clear
7:52 AM 36.0 °F - 26.1 °F 67% 30.26 in 10.0 mi North - - N/A   Clear
8:52 AM 42.1 °F 37.7 °F 28.0 °F 58% 30.25 in 10.0 mi SSW 6.9 mph - N/A   Clear
9:52 AM 51.1 °F - 28.9 °F 43% 30.25 in 10.0 mi SSW 10.4 mph - N/A   Clear
10:52 AM 55.9 °F - 30.9 °F 39% 30.23 in 10.0 mi SSW 12.7 mph - N/A   Clear
11:52 AM 60.1 °F - 33.1 °F 36% 30.20 in 10.0 mi SSW 16.1 mph 23.0 mph N/A   Clear
12:52 PM 66.0 °F - 36.0 °F 33% 30.18 in 10.0 mi WSW 17.3 mph 21.9 mph N/A   Clear
1:52 PM 70.0 °F - 37.0 °F 30% 30.14 in 10.0 mi SW 18.4 mph 26.5 mph N/A   Clear
2:52 PM 71.1 °F - 37.0 °F 29% 30.12 in 10.0 mi WSW 13.8 mph 25.3 mph N/A   Clear
3:52 PM 75.9 °F - 37.0 °F 24% 30.09 in 10.0 mi SW 17.3 mph 23.0 mph N/A   Clear
4:52 PM 77.0 °F - 37.0 °F 24% 30.09 in 10.0 mi WSW 8.1 mph 19.6 mph N/A   Clear
5:52 PM 75.9 °F - 37.0 °F 24% 30.08 in 10.0 mi WSW 6.9 mph - N/A   Clear
6:52 PM 73.0 °F - 37.9 °F 28% 30.07 in 10.0 mi WNW 3.5 mph - N/A   Clear
7:52 PM 62.1 °F - 37.9 °F 41% 30.09 in 10.0 mi NW 3.5 mph - N/A   Clear
8:52 PM 52.0 °F - 37.9 °F 59% 30.10 in 10.0 mi Calm Calm - N/A   Clear
9:52 PM 48.0 °F - 37.9 °F 68% 30.10 in 10.0 mi Calm Calm - N/A   Clear
10:52 PM 46.9 °F - 39.0 °F 74% 30.10 in 10.0 mi ENE 3.5 mph - N/A   Clear
11:52 PM 46.0 °F - 37.9 °F 73% 30.10 in 10.0 mi Calm Calm - N/A   Clear